Location: Emporia
(38.4040°N, 96.1810°W)
Time: 17:07:34
(UTC-06:00)

Amateur Radio Satellites - All Passes

Search period start: 20 December 2014 16:37
Search period end: 21 December 2014 16:37
Location: Emporia, 38.4040°N, 96.1810°W

Satellite Date Start Highest point End Downlink Frequencies (MHz)
Time Altitude Azimuth
MOZHAYETS 4 20 Dec 16:39:02 16:42:56 26° 95° (E) 16:46:47
AO-7 20 Dec 16:42:51 16:50:32 41° 261° (W) 16:58:18 29.400- 29.500
SRMSAT 20 Dec 16:58:19 16:59:06 10° 188° (S) 16:59:54 437.500
AIST 1 20 Dec 17:04:59 17:09:19 59° 279° (W) 17:13:38
Cubesat XI-IV 20 Dec 17:19:35 17:24:31 40° 70° (ENE) 17:29:27 437.490
GONETS M04 20 Dec 17:45:29 17:54:05 64° 268° (W) 18:02:36
CUTE-I 20 Dec 17:52:24 17:57:43 81° 75° (ENE) 18:03:03 437.470
CUBESAT XI-V 20 Dec 18:03:02 18:05:29 14° 91° (E) 18:07:56 437.345
JAS-2 20 Dec 18:07:39 18:13:37 24° 266° (W) 18:19:17 435.910
STRAND 1 20 Dec 18:11:58 18:15:03 16° 92° (E) 18:18:07 437.568
MOZHAYETS 4 20 Dec 18:16:09 18:20:04 28° 291° (WNW) 18:23:57
HO-68 20 Dec 18:26:54 18:29:03 12° 52° (NE) 18:31:12 435.675
MaSat-1 20 Dec 18:33:36 18:36:00 65° 65° (ENE) 18:38:33 437.345
RS-15 20 Dec 18:38:47 18:47:12 23° 28° (NNE) 18:55:49 29.354- 29.394
PRISM 20 Dec 19:00:10 19:04:16 58° 286° (WNW) 19:08:18 437.425
Cubesat XI-IV 20 Dec 19:00:29 19:04:42 24° 265° (W) 19:08:56 437.490
ISS 20 Dec 19:19:56 19:22:24 19° 25° (NNE) 19:24:52 145.825
CUSAT 1 20 Dec 19:21:36 19:27:28 22° 68° (ENE) 19:33:43 437.405
SEEDS 20 Dec 19:32:02 19:34:08 14° 65° (ENE) 19:36:16 437.485
BRITE-PL 20 Dec 19:33:25 19:36:09 17° 67° (ENE) 19:38:53 437.365/2234.400
CUTE 1.7 + AOD 2 20 Dec 19:34:47 19:37:34 17° 67° (ENE) 19:40:21 437.475
CUTE-I 20 Dec 19:36:56 19:38:21 11° 270° (W) 19:39:47 437.470
CUBESAT XI-V 20 Dec 19:38:45 19:43:12 50° 287° (WNW) 19:47:37 437.345
STRAND 1 20 Dec 19:49:34 19:54:32 54° 288° (WNW) 19:59:29 437.568
SO-50 20 Dec 19:54:26 19:55:54 11° 106° (ESE) 19:57:23 436.795
GOMX 1 20 Dec 19:59:04 20:02:21 23° 69° (ENE) 20:05:39 467.674
HO-68 20 Dec 20:08:19 20:15:23 65° 70° (ENE) 20:22:28 435.675
Oscar 11 20 Dec 20:11:50 20:14:11 15° 65° (ENE) 20:16:32 145.826/435.025
DANDE 20 Dec 20:12:31 20:19:52 44° 75° (ENE) 20:28:00 436.750
UKube-1 20 Dec 20:20:34 20:22:49 14° 64° (ENE) 20:25:04 .
DOVE 4 20 Dec 20:23:36 20:27:16 31° 71° (ENE) 20:30:59 437.250
AAUSAT CUBESAT 2 20 Dec 20:24:29 20:28:22 38° 72° (ENE) 20:32:18 437.432
CUBEBUG 2 20 Dec 20:32:22 20:34:38 14° 65° (ENE) 20:36:57 437.445
CANX-2 20 Dec 20:38:00 20:42:16 82° 258° (WSW) 20:46:35 2200.000
ZACube-1 20 Dec 20:42:45 20:44:49 14° 65° (ENE) 20:46:55 437.345
CINEMA 3 20 Dec 20:48:03 20:51:50 35° 71° (ENE) 20:55:41 145.822/145.860
RS-15 20 Dec 20:50:55 21:02:11 68° 55° (NE) 21:13:56 29.354- 29.394
ISS 20 Dec 20:55:59 20:59:13 58° 222° (SW) 21:02:25 145.825
COMPASS 1 20 Dec 20:59:33 21:03:45 70° 259° (WSW) 21:08:00 437.405
CUSAT 1 20 Dec 21:03:16 21:11:09 81° 263° (W) 21:19:41 437.405
SEEDS 20 Dec 21:05:24 21:09:30 49° 261° (W) 21:13:40 437.485
FUNcube-1 20 Dec 21:07:53 21:11:19 25° 69° (ENE) 21:14:49 145.935
UWE-3 20 Dec 21:08:40 21:12:20 31° 71° (ENE) 21:16:06 435.000/436.395/437.385
CUTE 1.7 + AOD 2 20 Dec 21:09:11 21:13:09 38° 262° (W) 21:17:11 437.475
BRITE-PL 20 Dec 21:10:39 21:14:27 33° 262° (W) 21:18:13 437.365/2234.400
DELFI C3 20 Dec 21:15:25 21:19:28 61° 75° (ENE) 21:23:33 145.870
50 SAT 20 Dec 21:18:49 21:21:09 15° 66° (ENE) 21:23:30 437.505
DX 1 20 Dec 21:23:16 21:27:35 73° 75° (ENE) 21:31:55 434.975-435.025
BEESAT 3 20 Dec 21:25:49 21:28:42 18° 47° (NE) 21:31:33 437.485
AISAT 20 Dec 21:26:28 21:30:04 25° 69° (ENE) 21:33:41 437.250
SO-50 20 Dec 21:31:17 21:35:46 69° 303° (WNW) 21:40:26 436.795
CUBEBUG 1 20 Dec 21:34:46 21:35:50 11° 63° (ENE) 21:36:53 437.445
AIST 2 20 Dec 21:34:50 21:35:52 11° 41° (NE) 21:36:55 435.215
GOMX 1 20 Dec 21:37:01 21:40:25 24° 265° (W) 21:43:49 467.674
HUMSAT D 20 Dec 21:40:27 21:44:11 34° 71° (ENE) 21:47:58 437.325/437.525
Oscar 11 20 Dec 21:45:44 21:49:55 48° 261° (W) 21:54:08 145.826/435.025
UKube-1 20 Dec 21:54:20 21:58:32 50° 260° (W) 22:02:46 .
DANDE 20 Dec 21:56:00 22:03:17 42° 269° (W) 22:11:15 436.750
HO-68 20 Dec 21:58:12 22:03:31 22° 267° (W) 22:08:53 435.675
AAUSAT CUBESAT 2 20 Dec 22:01:35 22:04:11 16° 267° (W) 22:06:48 437.432
DOVE 4 20 Dec 22:02:19 22:05:08 18° 267° (W) 22:07:59 437.250
BEESAT 2 20 Dec 22:05:07 22:09:02 36° 53° (NE) 22:12:53 435.950
CUBEBUG 2 20 Dec 22:06:57 22:10:56 44° 261° (W) 22:15:01 437.445
TIGRISAT 20 Dec 22:14:36 22:18:15 22° 94° (E) 22:21:53 435.000
POPSAT HIP 1 20 Dec 22:15:05 22:16:51 12° 92° (E) 22:18:38 437.405
ZACube-1 20 Dec 22:16:43 22:20:44 48° 261° (W) 22:24:52 437.345
VELOX 1 20 Dec 22:18:40 22:23:06 86° 257° (WSW) 22:27:32 145.980
ESTCUBE 1 20 Dec 22:22:03 22:26:16 39° 72° (ENE) 22:30:29 437.505/2401.250
CINEMA 3 20 Dec 22:26:31 22:29:11 17° 267° (W) 22:31:54 145.822/145.860
TISAT 1 20 Dec 22:37:17 22:39:05 13° 64° (ENE) 22:40:53 437.305
BUGSAT 1 20 Dec 22:40:06 22:42:57 18° 95° (E) 22:45:48 437.445
SPROUT 20 Dec 22:41:03 22:43:00 13° 65° (ENE) 22:44:58 437.525
DUCHIFAT 1 20 Dec 22:41:29 22:45:01 25° 96° (E) 22:48:32 145.980
UNISAT 6 20 Dec 22:43:11 22:47:43 45° 99° (E) 22:52:14 437.425
FUNcube-1 20 Dec 22:44:13 22:47:36 24° 265° (W) 22:51:02 145.935
UWE-3 20 Dec 22:45:55 22:48:56 19° 266° (W) 22:52:01 435.000/436.395/437.385
CUSAT 1 20 Dec 22:48:55 22:53:18 16° 278° (W) 22:57:51 437.405
50 SAT 20 Dec 22:52:17 22:56:01 38° 262° (W) 22:59:49 437.505
YUBILEINY 20 Dec 22:54:49 23:01:36 26° 82° (E) 23:08:20 435.215
QB50P2 20 Dec 22:54:51 22:58:49 37° 98° (E) 23:02:47 145.880/145.840
PCSat 20 Dec 23:00:28 23:05:48 54° 59° (ENE) 23:11:05 145.827
AISAT 20 Dec 23:02:51 23:06:35 27° 264° (W) 23:10:21 437.250
BEESAT 3 20 Dec 23:03:07 23:07:07 45° 244° (WSW) 23:11:02 437.485
POLYITAN 1 20 Dec 23:03:38 23:07:47 47° 100° (E) 23:11:55 437.675
RS-15 20 Dec 23:04:11 23:13:49 34° 255° (WSW) 23:23:49 29.354- 29.394
NANOSAT C BR1 20 Dec 23:05:40 23:09:49 49° 100° (E) 23:13:56 145.865
CUBEBUG 1 20 Dec 23:07:16 23:11:37 68° 258° (WSW) 23:15:58 437.445
AIST 2 20 Dec 23:10:52 23:15:11 84° 59° (ENE) 23:19:25 435.215
ANTELSAT 20 Dec 23:15:00 23:19:44 82° 284° (WNW) 23:24:28 437.575/2403.000
SO-50 20 Dec 23:16:20 23:17:14 11° 322° (NW) 23:18:08 436.795
HUMSAT D 20 Dec 23:17:21 23:20:05 17° 267° (W) 23:22:50 437.325/437.525
QB50P1 20 Dec 23:20:02 23:24:18 74° 102° (ESE) 23:28:34 145.935-145.965
BEESAT 2 20 Dec 23:44:02 23:47:00 19° 250° (WSW) 23:49:56 435.950
POPSAT HIP 1 20 Dec 23:48:53 23:53:01 51° 286° (WNW) 23:57:10 437.405
TIGRISAT 20 Dec 23:50:45 23:55:01 35° 289° (WNW) 23:59:17 435.000
BEESAT 20 Dec 23:53:26 23:56:06 15° 63° (ENE) 23:58:46 436.000
ESTCUBE 1 21 Dec 00:00:10 00:03:16 18° 267° (W) 00:06:22 437.505/2401.250
TISAT 1 21 Dec 00:10:20 00:14:27 53° 260° (W) 00:18:34 437.305
SPROUT 21 Dec 00:14:27 00:18:37 53° 260° (W) 00:22:49 437.525
BUGSAT 1 21 Dec 00:14:54 00:18:29 31° 289° (WNW) 00:22:04 437.445
DUCHIFAT 1 21 Dec 00:17:18 00:20:47 25° 291° (WNW) 00:24:16 145.980
UNISAT 6 21 Dec 00:20:58 00:24:07 18° 294° (WNW) 00:27:17 437.425
O/OREOS (USA 219) 21 Dec 00:24:48 00:28:58 40° 105° (ESE) 00:33:09 437.305
QB50P2 21 Dec 00:31:34 00:34:27 18° 293° (WNW) 00:37:19 145.880/145.840
AUBIESAT-1 21 Dec 00:35:58 00:39:54 25° 63° (ENE) 00:43:53 437.475
POLYITAN 1 21 Dec 00:40:58 00:43:19 15° 295° (WNW) 00:45:40 437.675
NANOSAT C BR1 21 Dec 00:43:05 00:45:15 14° 295° (WNW) 00:47:26 145.865
PCSat 21 Dec 00:45:02 00:48:44 19° 255° (WSW) 00:52:25 145.827
Oscar 19 21 Dec 00:45:20 00:48:10 15° 91° (E) 00:50:59 437.125/150
YUBILEINY 21 Dec 00:49:02 00:57:40 63° 280° (W) 01:06:19 435.215
KKS-1 21 Dec 00:53:55 00:55:17 11° 63° (ENE) 00:56:40 437.445
M-CUBED/EXP-1 PRIME 21 Dec 01:00:57 01:05:35 48° 68° (ENE) 01:10:19 437.505
SWISSCUBE 21 Dec 01:03:40 01:08:28 85° 76° (ENE) 01:13:17 437.505
ITUPSAT 1 21 Dec 01:04:15 01:09:03 78° 75° (ENE) 01:13:52 437.325
BEESAT 21 Dec 01:28:44 01:33:27 57° 259° (W) 01:38:11 436.000
O/OREOS (USA 219) 21 Dec 02:05:27 02:08:32 18° 302° (WNW) 02:11:38 437.305
VERMONT LUNAR 21 Dec 02:07:00 02:09:30 18° 147° (SSE) 02:12:00 437.305
AUBIESAT-1 21 Dec 02:10:11 02:14:36 36° 258° (WSW) 02:19:08 437.475
STARS 21 Dec 02:22:29 02:26:50 72° 75° (ENE) 02:31:13 437.465
Oscar 19 21 Dec 02:22:45 02:27:53 61° 287° (WNW) 02:32:59 437.125/150
PHONESAT 2.4 21 Dec 02:22:48 02:25:06 16° 146° (SE) 02:27:24 2401.200-2431.200
KKS-1 21 Dec 02:26:57 02:31:20 66° 258° (WSW) 02:35:46 437.445
Gurwin Techsat 1B 21 Dec 02:36:33 02:41:32 40° 98° (E) 02:46:29 435.225
M-CUBED/EXP-1 PRIME 21 Dec 02:37:26 02:40:46 19° 263° (W) 02:44:10 437.505
ITAMSAT 1 21 Dec 02:39:11 02:44:22 70° 102° (ESE) 02:49:30 435.822/435.867
YUBILEINY 21 Dec 02:55:03 02:56:26 10° 302° (WNW) 02:57:50 435.215
AO-7 21 Dec 02:56:20 02:59:38 13° 89° (E) 03:02:54 29.400- 29.500
AIST 1 21 Dec 03:14:18 03:17:58 27° 76° (ENE) 03:21:36
MOZHAYETS 4 21 Dec 03:40:03 03:43:36 22° 68° (ENE) 03:47:10
VERMONT LUNAR 21 Dec 03:43:57 03:47:28 75° 162° (SSE) 03:51:00 437.305
HORYU 2 21 Dec 03:50:45 03:55:18 89° 105° (ESE) 03:59:48 437.375
PHONESAT 2.4 21 Dec 03:59:47 04:03:23 67° 160° (SSE) 04:06:59 2401.200-2431.200
Gurwin Techsat 1B 21 Dec 04:17:02 04:21:14 24° 294° (WNW) 04:25:26 435.225
ITAMSAT 1 21 Dec 04:20:35 04:23:14 14° 298° (WNW) 04:25:53 435.822/435.867
SO-50 21 Dec 04:25:53 04:27:33 12° 39° (NE) 04:29:14 436.795
AO-7 21 Dec 04:45:11 04:53:36 76° 106° (ESE) 05:01:56 29.400- 29.500
GONETS M04 21 Dec 04:48:57 04:56:24 32° 84° (E) 05:03:50
AIST 1 21 Dec 04:52:14 04:55:26 21° 272° (W) 04:58:37
CUBESAT XI-V 21 Dec 05:06:03 05:08:11 13° 64° (ENE) 05:10:19 437.345
MOZHAYETS 4 21 Dec 05:16:23 05:20:36 34° 263° (W) 05:24:51
JAS-2 21 Dec 05:18:07 05:23:36 56° 100° (E) 05:28:41 435.910
VERMONT LUNAR 21 Dec 05:22:23 05:25:53 59° 358° (N) 05:29:23 437.305
STRAND 1 21 Dec 05:26:23 05:30:10 21° 65° (ENE) 05:33:56 437.568
PHONESAT 2.4 21 Dec 05:38:33 05:42:08 61° 357° (N) 05:45:44 2401.200-2431.200
Cubesat XI-IV 21 Dec 05:39:20 05:42:51 18° 93° (E) 05:46:22 437.490
PRISM 21 Dec 05:49:05 05:53:19 84° 75° (ENE) 05:57:33 437.425
SO-50 21 Dec 06:04:04 06:08:59 71° 58° (ENE) 06:13:52 436.795
CUTE-I 21 Dec 06:11:24 06:16:16 36° 98° (E) 06:21:07 437.470
AO-7 21 Dec 06:39:15 06:45:32 24° 305° (NW) 06:51:48 29.400- 29.500
CUBESAT XI-V 21 Dec 06:40:27 06:45:04 62° 259° (W) 06:49:42 437.345
GONETS M04 21 Dec 06:44:11 06:52:45 53° 283° (WNW) 07:01:21
VERMONT LUNAR 21 Dec 07:00:48 07:04:21 90° 207° (SSW) 07:07:53 437.305
STRAND 1 21 Dec 07:04:10 07:09:01 44° 261° (W) 07:13:54 437.568
JAS-2 21 Dec 07:04:37 07:08:06 17° 299° (WNW) 07:11:27 435.910
PHONESAT 2.4 21 Dec 07:17:21 07:21:00 84° 14° (NNE) 07:24:38 2401.200-2431.200
Cubesat XI-IV 21 Dec 07:18:04 07:23:14 53° 288° (WNW) 07:28:22 437.490
HO-68 21 Dec 07:41:51 07:43:31 11° 88° (E) 07:45:11 435.675
SO-50 21 Dec 07:46:43 07:48:56 13° 253° (WSW) 07:51:08 436.795
CUTE-I 21 Dec 07:51:45 07:56:09 27° 293° (WNW) 08:00:32 437.470
DOVE 4 21 Dec 08:25:25 08:27:08 12° 91° (E) 08:28:54 437.250
CANX-2 21 Dec 08:26:04 08:29:12 19° 94° (E) 08:32:18 2200.000
VERMONT LUNAR 21 Dec 08:39:30 08:42:25 24° 211° (SSW) 08:45:19 437.305
COMPASS 1 21 Dec 08:45:52 08:49:07 21° 94° (E) 08:52:20 437.405
CINEMA 3 21 Dec 08:46:21 08:47:44 11° 90° (E) 08:49:08 145.822/145.860
SEEDS 21 Dec 08:51:56 08:55:43 29° 96° (E) 08:59:27 437.485
CUTE 1.7 + AOD 2 21 Dec 08:56:04 09:00:07 39° 98° (E) 09:04:08 437.475
PHONESAT 2.4 21 Dec 08:56:19 08:59:29 28° 209° (SSW) 09:02:38 2401.200-2431.200
YUBILEINY 21 Dec 09:09:41 09:10:46 10° 58° (ENE) 09:11:51 435.215
TIGRISAT 21 Dec 09:13:14 09:15:53 16° 65° (ENE) 09:18:35 435.000
DX 1 21 Dec 09:14:56 09:17:11 14° 93° (E) 09:19:25 434.975-435.025
BRITE-PL 21 Dec 09:15:06 09:19:52 75° 102° (ESE) 09:25:02 437.365/2234.400
MaSat-1 21 Dec 09:23:36 09:25:19 18° 299° (WNW) 09:27:00 437.345
HO-68 21 Dec 09:25:04 09:32:15 77° 105° (ESE) 09:39:22 435.675
DANDE 21 Dec 09:27:19 09:30:24 31° 89° (E) 09:34:21 436.750
BUGSAT 1 21 Dec 09:30:55 09:32:20 12° 65° (ENE) 09:33:45 437.445
DUCHIFAT 1 21 Dec 09:33:57 09:36:36 17° 66° (ENE) 09:39:16 145.980
Oscar 11 21 Dec 09:34:50 09:38:47 33° 97° (E) 09:42:42 145.826/435.025
GOMX 1 21 Dec 09:38:14 09:43:04 88° 284° (WNW) 09:48:14 467.674
UNISAT 6 21 Dec 09:41:18 09:45:12 32° 70° (ENE) 09:49:11 437.425
UKube-1 21 Dec 09:43:58 09:47:44 29° 97° (E) 09:51:29 .
AAUSAT CUBESAT 2 21 Dec 09:44:47 09:49:03 88° 281° (W) 09:53:16 437.432
QB50P2 21 Dec 09:47:12 09:50:35 24° 69° (ENE) 09:53:58 145.880/145.840
POLYITAN 1 21 Dec 09:55:59 09:59:38 30° 70° (ENE) 10:03:18 437.675
NANOSAT C BR1 21 Dec 09:57:31 10:01:12 30° 70° (ENE) 10:04:53 145.865
CUBEBUG 2 21 Dec 09:59:14 10:03:40 41° 98° (E) 10:08:09 437.445
DOVE 4 21 Dec 10:00:26 10:05:14 71° 284° (WNW) 10:10:17 437.250
CANX-2 21 Dec 10:01:18 10:05:11 33° 289° (WNW) 10:09:02 2200.000
ZACube-1 21 Dec 10:06:53 10:11:04 35° 97° (E) 10:15:17 437.345
QB50P1 21 Dec 10:11:41 10:15:41 44° 73° (ENE) 10:19:42 145.935-145.965
VELOX 1 21 Dec 10:11:56 10:15:12 20° 95° (E) 10:18:28 145.980
ANTELSAT 21 Dec 10:12:46 10:17:06 74° 76° (ENE) 10:21:35 437.575/2403.000
CUSAT 1 21 Dec 10:14:31 10:18:00 48° 285° (WNW) 10:22:39 437.405
CINEMA 3 21 Dec 10:20:33 10:25:18 72° 284° (WNW) 10:30:14 145.822/145.860
COMPASS 1 21 Dec 10:21:08 10:24:50 30° 289° (WNW) 10:28:31 437.405
SEEDS 21 Dec 10:28:04 10:31:21 22° 292° (WNW) 10:34:37 437.485
DELFI C3 21 Dec 10:32:46 10:36:50 60° 285° (WNW) 10:40:52 145.870
CUTE 1.7 + AOD 2 21 Dec 10:32:53 10:35:43 17° 293° (WNW) 10:38:32 437.475
FUNcube-1 21 Dec 10:33:08 10:37:41 70° 101° (ESE) 10:42:15 145.935
50 SAT 21 Dec 10:34:04 10:37:46 30° 97° (E) 10:41:26 437.505
UWE-3 21 Dec 10:35:44 10:40:22 89° 103° (ESE) 10:45:03 435.000/436.395/437.385
O/OREOS (USA 219) 21 Dec 10:35:52 10:40:21 62° 67° (ENE) 10:44:50 437.305
POPSAT HIP 1 21 Dec 10:40:15 10:44:27 83° 257° (WSW) 10:48:41 437.405
TIGRISAT 21 Dec 10:48:05 10:52:13 44° 261° (W) 10:56:29 435.000
DX 1 21 Dec 10:49:29 10:53:39 47° 287° (WNW) 10:57:49 434.975-435.025
AISAT 21 Dec 10:54:41 10:59:05 63° 101° (ESE) 11:03:29 437.250
BRITE-PL 21 Dec 10:56:10 10:57:52 12° 296° (WNW) 10:59:37 437.365/2234.400
CUBEBUG 1 21 Dec 10:58:28 11:02:00 24° 96° (E) 11:05:31 437.445
YUBILEINY 21 Dec 11:00:56 11:09:33 62° 79° (E) 11:18:08 435.215
HUMSAT D 21 Dec 11:01:40 11:06:01 85° 103° (ESE) 11:10:22 437.325/437.525
BUGSAT 1 21 Dec 11:03:21 11:07:22 54° 260° (W) 11:11:21 437.445
DUCHIFAT 1 21 Dec 11:08:14 11:12:08 38° 262° (W) 11:16:05 145.980
Oscar 11 21 Dec 11:11:29 11:14:43 21° 292° (WNW) 11:17:57 145.826/435.025
DANDE 21 Dec 11:12:13 11:14:17 14° 298° (WNW) 11:16:39 436.750
RS-15 21 Dec 11:12:54 11:23:12 49° 110° (ESE) 11:33:26 29.354- 29.394
HO-68 21 Dec 11:14:16 11:19:10 20° 302° (WNW) 11:24:03 435.675
UNISAT 6 21 Dec 11:18:46 11:22:02 21° 266° (W) 11:25:22 437.425
UKube-1 21 Dec 11:20:20 11:23:44 23° 292° (WNW) 11:27:08 .
QB50P2 21 Dec 11:22:51 11:26:23 26° 264° (W) 11:29:56 145.880/145.840
POLYITAN 1 21 Dec 11:32:25 11:35:35 21° 265° (W) 11:38:45 437.675
NANOSAT C BR1 21 Dec 11:33:59 11:37:05 20° 265° (W) 11:40:12 145.865
CUBEBUG 2 21 Dec 11:36:46 11:40:03 19° 293° (WNW) 11:43:23 437.445
ZACube-1 21 Dec 11:43:47 11:47:11 21° 292° (WNW) 11:50:37 437.345
VELOX 1 21 Dec 11:47:51 11:51:50 34° 290° (WNW) 11:55:48 145.980
QB50P1 21 Dec 11:49:39 11:51:47 14° 268° (W) 11:53:56 145.935-145.965
ESTCUBE 1 21 Dec 11:52:53 11:57:23 76° 284° (WNW) 12:01:51 437.505/2401.250
TISAT 1 21 Dec 11:57:15 12:00:49 26° 96° (E) 12:04:22 437.305
Oscar 19 21 Dec 12:00:41 12:04:16 20° 64° (ENE) 12:07:52 437.125/150
SPROUT 21 Dec 12:03:05 12:06:50 29° 97° (E) 12:10:34 437.525
JUGNU 21 Dec 12:03:43 12:04:37 10° 171° (S) 12:05:30 437.505
50 SAT 21 Dec 12:09:43 12:12:46 20° 292° (WNW) 12:15:49 437.505
FUNcube-1 21 Dec 12:11:55 12:13:26 12° 297° (WNW) 12:14:57 145.935
O/OREOS (USA 219) 21 Dec 12:17:56 12:19:09 11° 262° (W) 12:20:22 437.305
ITAMSAT 1 21 Dec 12:20:57 12:22:11 11° 59° (ENE) 12:23:25 435.822/435.867
AISAT 21 Dec 12:33:30 12:35:10 12° 297° (WNW) 12:36:49 437.250
CUBEBUG 1 21 Dec 12:34:40 12:38:19 27° 291° (WNW) 12:41:57 437.445
BEESAT 3 21 Dec 12:56:06 13:00:01 47° 116° (ESE) 13:04:00 437.485
YUBILEINY 21 Dec 12:58:54 13:05:38 26° 278° (W) 13:12:22 435.215
SWISSCUBE 21 Dec 13:06:25 13:10:16 24° 95° (E) 13:14:06 437.505
ITUPSAT 1 21 Dec 13:07:21 13:11:05 22° 95° (E) 13:14:46 437.325
AIST 2 21 Dec 13:08:26 13:11:55 26° 112° (ESE) 13:15:28 435.215
RS-15 21 Dec 13:25:05 13:35:30 48° 312° (NW) 13:46:03 29.354- 29.394
BEESAT 21 Dec 13:30:46 13:35:15 40° 99° (E) 13:39:42 436.000
TISAT 1 21 Dec 13:33:07 13:36:31 24° 291° (WNW) 13:39:55 437.305
ISS 21 Dec 13:35:33 13:38:51 81° 321° (NW) 13:42:10 145.825
BEESAT 2 21 Dec 13:36:36 13:40:41 68° 302° (WNW) 13:44:51 435.950
Oscar 19 21 Dec 13:38:15 13:43:12 49° 260° (W) 13:48:13 437.125/150
SPROUT 21 Dec 13:39:24 13:42:45 23° 292° (WNW) 13:46:06 437.525
PCSat 21 Dec 13:40:25 13:45:46 69° 115° (ESE) 13:51:10 145.827
JUGNU 21 Dec 13:50:28 13:52:44 12° 182° (S) 13:55:00 437.505
AO-7 21 Dec 13:53:25 13:58:50 20° 52° (NE) 14:04:16 29.400- 29.500
AUBIESAT-1 21 Dec 13:55:26 13:58:34 20° 98° (E) 14:01:30 437.475
ITAMSAT 1 21 Dec 13:55:41 14:00:52 90° 76° (ENE) 14:06:05 435.822/435.867
Gurwin Techsat 1B 21 Dec 13:56:05 14:01:15 55° 72° (ENE) 14:06:25 435.225
STARS 21 Dec 14:15:29 14:18:05 15° 93° (E) 14:20:40 437.465
KKS-1 21 Dec 14:20:12 14:23:58 26° 96° (E) 14:27:43 437.445
M-CUBED/EXP-1 PRIME 21 Dec 14:21:02 14:25:11 46° 103° (ESE) 14:28:56 437.505
BEESAT 3 21 Dec 14:35:40 14:38:26 17° 313° (NW) 14:41:15 437.485
SWISSCUBE 21 Dec 14:43:55 14:48:08 32° 291° (WNW) 14:52:19 437.505
ITUPSAT 1 21 Dec 14:44:42 14:49:01 35° 290° (WNW) 14:53:18 437.325
AIST 2 21 Dec 14:46:42 14:50:26 29° 309° (NW) 14:54:13 435.215
HORYU 2 21 Dec 14:47:41 14:52:06 68° 75° (ENE) 14:56:35 437.375
SRMSAT 21 Dec 14:55:45 14:57:59 12° 179° (S) 15:00:14 437.500
GONETS M04 21 Dec 15:02:29 15:06:21 13° 60° (ENE) 15:10:11
BEESAT 21 Dec 15:09:21 15:12:47 20° 294° (WNW) 15:16:13 436.000
ISS 21 Dec 15:13:51 15:15:52 15° 339° (NNW) 15:17:53 145.825
PCSat 21 Dec 15:26:00 15:29:42 18° 313° (NW) 15:33:25 145.827
JAS-2 21 Dec 15:27:47 15:33:49 27° 65° (ENE) 15:39:25 435.910
AUBIESAT-1 21 Dec 15:29:51 15:33:35 30° 296° (WNW) 15:37:02 437.475
Gurwin Techsat 1B 21 Dec 15:38:08 15:41:31 17° 268° (W) 15:44:55 435.225
AO-7 21 Dec 15:42:08 15:50:27 87° 71° (ENE) 15:58:52 29.400- 29.500
AIST 1 21 Dec 15:43:11 15:46:11 18° 87° (E) 15:49:11
RS-15 21 Dec 15:44:35 15:51:37 18° 343° (NNW) 15:58:46 29.354- 29.394
STARS 21 Dec 15:50:31 15:54:45 45° 288° (WNW) 15:58:58 437.465
KKS-1 21 Dec 15:56:47 16:00:31 27° 291° (WNW) 16:04:15 437.445
M-CUBED/EXP-1 PRIME 21 Dec 15:57:14 15:59:42 15° 302° (WNW) 16:02:04 437.505
